Regional Weather Roundup
Issued by NWS Northern Indiana

Home | Current Version | Previous Version | Text Only | Print | Product List | Glossary On
Versions: 1 2 3 4 5 6 7 8 9 10 11 12 13 14 15 16 17 18 19 20 21 22 23 24 25 26 27 28 29 30 31 32 33 34 35 36 37 38 39 40 41 42 43 44 45 46 47 48 49 50
000
ASUS43 KIWX 200410
RWRIWX

KIWX WEATHER ROUNDUP
NATIONAL WEATHER SERVICE NORTHERN INDIANA
1200 AM EDT SUN APR 20 2014

NOTE: "FAIR" INDICATES FEW OR NO CLOUDS BELOW 12,000 FEET WITH NO
SIGNIFICANT WEATHER AND/OR OBSTRUCTIONS TO VISIBILITY.

* THESE STATIONS ARE NOT UNDER NWS QUALITY CONTROL. THEY ALSO MAY NOT
  REPORT WEATHER SUCH AS PRECIPITATION OR FOG.

INZ001>027-200500-
NORTHERN INDIANA

CITY           SKY/WX    TMP DP  RH WIND       PRES   REMARKS
GARY*          MOCLDY    58  32  37 SE14      30.26S
VALPARAISO     MOCLDY    49  33  54 SE10      30.28F
MICHIGAN CITY* MOCLDY    52  28  40 SE6       30.29F
LAPORTE*       PTCLDY    48  31  52 SE7       30.29F
SOUTH BEND     PTCLDY    50  27  40 E9        30.32R
GOSHEN         CLEAR     45  29  53 E8        30.31S
MONTICELLO*    PTCLDY    52  33  49 E7        30.26R
LOGANSPORT*    PTCLDY    48  28  46 E10       30.28F
ROCHESTER*     CLEAR     46  32  57 E8        30.30S
WARSAW*        CLEAR     45  27  49 E8        30.30F
ANGOLA*        CLEAR     43  27  52 CALM      30.33S
FORT WAYNE     PTCLDY    41  25  53 E8        30.32S
HUNTINGTON*    FAIR      44  24  45 E5        30.30S
PERU/GRISSOM   CLEAR     48  29  49 E9        30.28S
MARION*        CLEAR     47  28  47 E9        30.29S

$$
INZ028>050-200500-
CENTRAL INDIANA

CITY           SKY/WX    TMP DP  RH WIND       PRES   REMARKS
LAFAYETTE      PTCLDY    52  36  54 E9        30.26R
KOKOMO*        CLEAR     46  30  53 E12       30.27F
MUNCIE*        CLEAR     44  31  60 E7        30.28F
INDIANAPOLIS   MOCLDY    55  33  43 E12       30.24F

$$
MIZ043>046-050>051-056>058-064>065-071>073-077>080-200500-
SOUTHWEST LOWER MICHIGAN

CITY           SKY/WX    TMP DP  RH WIND       PRES   REMARKS
BATTLE CREEK   PTCLDY    47  26  44 SE5       30.34F
BENTON HARBOR  MOCLDY    50  28  42 SE10      30.29F
COLDWATER*     PTCLDY    43  29  59 E5        30.33F
HILLSDALE*     MOCLDY    40  29  65 CALM      30.33S
HOLLAND        MOCLDY    51  31  46 SE12      30.31R
GRAND RAPIDS   MOCLDY    50  29  44 S12       30.32S
KALAMAZOO      PTCLDY    47  28  47 SE6       30.32F
STURGIS*       PTCLDY    45  28  53 NE5       30.32S
THREE RIVERS*  FAIR      46  28  49 E6        30.32F

$$
OHZ001>008-015>018-024>025-200500-
NORTHWEST OHIO

CITY           SKY/WX    TMP DP  RH WIND       PRES   REMARKS
WAUSEON*       FAIR      37  32  81 NE6       30.33F
DEFIANCE       PTCLDY    42  29  59 E5        30.32F
FINDLAY        CLEAR     42  31  64 NE8       30.30F
TOLEDO EXPRESS CLEAR     40  31  70 E5        30.33S
TOLEDO METCALF CLEAR     41  32  70 E5        30.34F
LIMA           CLEAR     41  30  65 NE5       30.30S

$$
&&



USA.gov is the U.S. government's official web portal to all federal, state and local government web resources and services.